TimeCDT,TemperatureF,Dew PointF,Humidity,Sea Level PressureIn,VisibilityMPH,Wind Direction,Wind SpeedMPH,Gust SpeedMPH,PrecipitationIn,Events,Conditions,WindDirDegrees,DateUTC
12:15 AM,48.2,46.4,93,30.02,8.0,ESE,4.6,-,N/A,,Clear,110,2013-09-25 05:15:00
12:35 AM,50.0,46.4,87,30.02,9.0,Calm,Calm,-,N/A,,Clear,0,2013-09-25 05:35:00
12:55 AM,48.2,46.4,93,30.02,4.0,Calm,Calm,-,N/A,,Clear,0,2013-09-25 05:55:00
1:15 AM,50.0,48.2,94,30.02,1.2,Calm,Calm,-,N/A,,Clear,0,2013-09-25 06:15:00
1:35 AM,48.2,46.4,93,30.02,0.5,Calm,Calm,-,N/A,,Unknown,0,2013-09-25 06:35:00
1:55 AM,46.4,44.6,93,30.02,1.0,Calm,Calm,-,N/A,,Clear,0,2013-09-25 06:55:00
2:15 AM,46.4,44.6,93,30.02,2.0,East,4.6,-,N/A,,Clear,100,2013-09-25 07:15:00
2:35 AM,50.0,48.2,94,30.01,10.0,East,5.8,-,N/A,,Clear,100,2013-09-25 07:35:00
2:55 AM,48.2,46.4,93,30.01,8.0,Calm,Calm,-,N/A,,Clear,0,2013-09-25 07:55:00
3:15 AM,48.2,46.4,93,30.01,1.8,Calm,Calm,-,N/A,,Clear,0,2013-09-25 08:15:00
3:35 AM,48.2,44.6,87,30.01,7.0,East,3.5,-,N/A,,Clear,90,2013-09-25 08:35:00
3:55 AM,51.8,48.2,88,30.02,10.0,East,5.8,-,N/A,,Clear,80,2013-09-25 08:55:00
4:15 AM,48.2,46.4,93,30.02,5.0,East,4.6,-,N/A,,Clear,80,2013-09-25 09:15:00
4:35 AM,48.2,46.4,93,30.03,2.0,ENE,3.5,-,N/A,,Clear,70,2013-09-25 09:35:00
4:55 AM,50.0,48.2,94,30.03,8.0,NNW,5.8,-,N/A,,Clear,340,2013-09-25 09:55:00
5:15 AM,48.2,46.4,93,30.03,1.5,Calm,Calm,-,N/A,,Clear,0,2013-09-25 10:15:00
5:35 AM,48.2,46.4,93,30.03,0.5,Calm,Calm,-,N/A,,Mostly Cloudy,0,2013-09-25 10:35:00
5:55 AM,48.2,46.4,93,30.04,0.2,Calm,Calm,-,N/A,,Overcast,0,2013-09-25 10:55:00
6:15 AM,50.0,46.4,87,30.04,0.5,North,3.5,-,N/A,,Mostly Cloudy,360,2013-09-25 11:15:00
6:35 AM,51.8,48.2,88,30.04,0.2,NNE,3.5,-,N/A,,Overcast,20,2013-09-25 11:35:00
6:55 AM,50.0,46.4,87,30.04,0.2,North,5.8,-,N/A,,Mostly Cloudy,10,2013-09-25 11:55:00
7:15 AM,51.8,48.2,88,30.04,0.2,North,5.8,-,N/A,,Overcast,10,2013-09-25 12:15:00
7:35 AM,53.6,51.8,94,30.04,4.0,NNE,3.5,-,N/A,,Overcast,30,2013-09-25 12:35:00
7:55 AM,53.6,53.6,100,30.04,5.0,NNW,3.5,-,N/A,,Mostly Cloudy,340,2013-09-25 12:55:00
8:15 AM,55.4,53.6,94,30.04,3.0,NNE,4.6,-,N/A,,Mostly Cloudy,30,2013-09-25 13:15:00
8:35 AM,55.4,53.6,94,30.04,0.5,North,4.6,-,N/A,,Overcast,350,2013-09-25 13:35:00
8:55 AM,55.4,53.6,94,30.05,1.8,North,4.6,-,N/A,,Overcast,350,2013-09-25 13:55:00
9:15 AM,55.4,53.6,94,30.05,5.0,North,4.6,-,N/A,,Overcast,10,2013-09-25 14:15:00
9:35 AM,57.2,55.4,94,30.05,10.0,ENE,3.5,-,N/A,,Scattered Clouds,60,2013-09-25 14:35:00
9:55 AM,57.2,55.4,94,30.04,10.0,ENE,4.6,-,N/A,,Partly Cloudy,70,2013-09-25 14:55:00
10:15 AM,60.8,55.4,82,30.04,10.0,Calm,Calm,-,N/A,,Partly Cloudy,0,2013-09-25 15:15:00
10:35 AM,60.8,55.4,82,30.05,10.0,East,5.8,-,N/A,,Clear,80,2013-09-25 15:35:00
10:55 AM,62.6,53.6,72,30.05,10.0,East,8.1,-,N/A,,Partly Cloudy,100,2013-09-25 15:55:00
11:15 AM,62.6,55.4,77,30.04,10.0,NE,6.9,-,N/A,,Mostly Cloudy,40,2013-09-25 16:15:00
11:35 AM,62.6,55.4,77,30.05,10.0,East,8.1,-,N/A,,Mostly Cloudy,80,2013-09-25 16:35:00
11:55 AM,62.6,53.6,72,30.04,10.0,East,4.6,-,N/A,,Mostly Cloudy,90,2013-09-25 16:55:00
12:15 PM,62.6,55.4,77,30.04,10.0,ENE,6.9,-,N/A,,Mostly Cloudy,60,2013-09-25 17:15:00
12:35 PM,64.4,55.4,73,30.03,10.0,NE,8.1,-,N/A,,Overcast,40,2013-09-25 17:35:00
12:55 PM,62.6,53.6,72,30.03,10.0,NNE,4.6,-,N/A,,Overcast,20,2013-09-25 17:55:00
1:15 PM,64.4,53.6,68,30.03,10.0,NE,4.6,-,N/A,,Overcast,50,2013-09-25 18:15:00
1:35 PM,64.4,53.6,68,30.02,10.0,SE,8.1,-,N/A,,Mostly Cloudy,130,2013-09-25 18:35:00
1:55 PM,64.4,53.6,68,30.02,10.0,East,8.1,-,N/A,,Partly Cloudy,100,2013-09-25 18:55:00
2:15 PM,64.4,53.6,68,30.02,10.0,ESE,5.8,-,N/A,,Partly Cloudy,110,2013-09-25 19:15:00
2:35 PM,64.4,53.6,68,30.02,10.0,NNE,6.9,-,N/A,,Scattered Clouds,20,2013-09-25 19:35:00
2:55 PM,62.6,53.6,72,30.02,10.0,NE,8.1,-,N/A,,Partly Cloudy,40,2013-09-25 19:55:00
3:15 PM,62.6,53.6,72,30.02,10.0,East,5.8,-,N/A,,Partly Cloudy,80,2013-09-25 20:15:00
3:35 PM,62.6,53.6,72,30.02,10.0,NNE,4.6,-,N/A,,Partly Cloudy,30,2013-09-25 20:35:00
3:55 PM,62.6,53.6,72,30.02,10.0,NE,5.8,-,N/A,,Mostly Cloudy,40,2013-09-25 20:55:00
4:15 PM,62.6,51.8,68,30.02,10.0,ENE,5.8,-,N/A,,Overcast,60,2013-09-25 21:15:00
4:35 PM,62.6,53.6,72,30.02,10.0,East,3.5,-,N/A,,Scattered Clouds,100,2013-09-25 21:35:00
4:55 PM,62.6,53.6,72,30.01,10.0,East,6.9,-,N/A,,Scattered Clouds,80,2013-09-25 21:55:00
5:15 PM,62.6,51.8,68,30.01,10.0,East,4.6,-,N/A,,Clear,100,2013-09-25 22:15:00
5:35 PM,62.6,50.0,63,30.01,10.0,East,4.6,-,N/A,,Clear,100,2013-09-25 22:35:00
5:55 PM,62.6,50.0,63,30.01,10.0,ESE,3.5,-,N/A,,Clear,120,2013-09-25 22:55:00
6:15 PM,60.8,51.8,72,30.01,10.0,East,3.5,-,N/A,,Clear,80,2013-09-25 23:15:00
6:35 PM,59.0,51.8,77,30.01,10.0,East,4.6,-,N/A,,Clear,90,2013-09-25 23:35:00
6:55 PM,57.2,51.8,82,30.01,8.0,Calm,Calm,-,N/A,,Clear,0,2013-09-25 23:55:00
7:15 PM,55.4,51.8,88,30.02,10.0,Calm,Calm,-,N/A,,Clear,0,2013-09-26 00:15:00
7:35 PM,53.6,51.8,94,30.02,9.0,Calm,Calm,-,N/A,,Clear,0,2013-09-26 00:35:00
7:55 PM,53.6,51.8,94,30.02,2.0,Calm,Calm,-,N/A,,Clear,0,2013-09-26 00:55:00
8:15 PM,51.8,50.0,94,30.02,0.5,Calm,Calm,-,N/A,,Unknown,0,2013-09-26 01:15:00
8:35 PM,53.6,53.6,100,30.01,10.0,ENE,4.6,-,N/A,,Clear,70,2013-09-26 01:35:00
8:55 PM,55.4,53.6,94,30.01,10.0,East,5.8,-,N/A,,Clear,80,2013-09-26 01:55:00
9:15 PM,55.4,53.6,94,30.01,10.0,ENE,3.5,-,N/A,,Clear,60,2013-09-26 02:15:00
9:35 PM,55.4,53.6,94,30.02,10.0,East,4.6,-,N/A,,Clear,80,2013-09-26 02:35:00
9:55 PM,55.4,51.8,88,30.02,9.0,Calm,Calm,-,N/A,,Clear,0,2013-09-26 02:55:00
10:15 PM,55.4,51.8,88,30.03,8.0,ENE,3.5,-,N/A,,Clear,70,2013-09-26 03:15:00
10:35 PM,53.6,51.8,94,30.03,3.0,East,4.6,-,N/A,,Clear,80,2013-09-26 03:35:00
10:55 PM,55.4,51.8,88,30.02,10.0,East,3.5,-,N/A,,Clear,100,2013-09-26 03:55:00
11:15 PM,55.4,51.8,88,30.02,10.0,East,4.6,-,N/A,,Clear,100,2013-09-26 04:15:00
11:35 PM,53.6,51.8,94,30.03,7.0,Calm,Calm,-,N/A,,Clear,0,2013-09-26 04:35:00
11:55 PM,53.6,51.8,94,30.03,10.0,Calm,Calm,-,N/A,,Clear,0,2013-09-26 04:55:00